This is the latest recevied weather packets stored in our database for station/object KE8GJZ-1. If no packets are shown the sender has not sent any weather packets the latest 10 day(s).
| Time | Temp. | Humidity | Pressure | Rain* | Wind** | Luminosity | Snow |
|---|---|---|---|---|---|---|---|
| 1777715063 | 0° C | 83% | 1015.5 hPa | 0 mm | - | 0 W/m² | - |
| 1777714761 | 0.56° C | 83% | 1015.5 hPa | 0 mm | - | 0 W/m² | - |
| 1777714460 | 0.56° C | 82% | 1015.6 hPa | 0 mm | - | 0 W/m² | - |
| 1777714157 | 0.56° C | 82% | 1015.4 hPa | 0 mm | - | 0 W/m² | - |
| 1777713855 | 0.56° C | 81% | 1015.3 hPa | 0 mm | - | 0 W/m² | - |
| 1777713553 | 0.56° C | 81% | 1015.4 hPa | 0 mm | - | 0 W/m² | - |
| 1777713248 | 0.56° C | 80% | 1015.4 hPa | 0 mm | - | 0 W/m² | - |
| 1777712945 | 0.56° C | 79% | 1015.3 hPa | 0 mm | - | 0 W/m² | - |
| 1777712642 | 1.11° C | 78% | 1015.4 hPa | 0 mm | - | 0 W/m² | - |
| 1777712339 | 1.11° C | 77% | 1015.2 hPa | 0 mm | - | 0 W/m² | - |
| 1777712035 | 1.11° C | 76% | 1015.1 hPa | 0 mm | - | 0 W/m² | - |
| 1777711732 | 1.11° C | 76% | 1015.3 hPa | 0 mm | - | 0 W/m² | - |
| 1777711428 | 1.11° C | 76% | 1014.9 hPa | 0 mm | - | 0 W/m² | - |
| 1777711124 | 1.67° C | 74% | 1015.3 hPa | 0 mm | - | 0 W/m² | - |
| 1777710821 | 1.67° C | 74% | 1015 hPa | 0 mm | - | 0 W/m² | - |
| 1777710518 | 1.67° C | 74% | 1015.1 hPa | 0 mm | - | 0 W/m² | - |
| 1777710216 | 1.67° C | 73% | 1015 hPa | 0 mm | - | 0 W/m² | - |
| 1777709913 | 1.67° C | 72% | 1015.1 hPa | 0 mm | - | 0 W/m² | - |
| 1777709610 | 2.22° C | 72% | 1015 hPa | 0 mm | - | 0 W/m² | - |
| 1777709307 | 2.22° C | 72% | 1015.2 hPa | 0 mm | - | 0 W/m² | - |
| 1777709004 | 2.22° C | 71% | 1014.9 hPa | 0 mm | - | 0 W/m² | - |
| 1777708701 | 2.22° C | 71% | 1014.9 hPa | 0 mm | - | 0 W/m² | - |
| 1777708400 | 2.78° C | 71% | 1014.9 hPa | 0 mm | - | 0 W/m² | - |
| 1777708097 | 2.78° C | 71% | 1015 hPa | 0 mm | - | 0 W/m² | - |
| 1777707795 | 2.78° C | 69% | 1014.9 hPa | 0 mm | - | 0 W/m² | - |
* Rain latest hour (hover to see other rain measurements)
** Current wind speed in m/s (hover to see current wind gust speed)